Time,TemperatureF,DewpointF,PressureIn,WindDirection,WindDirectionDegrees,WindSpeedMPH,WindSpeedGustMPH,Humidity,HourlyPrecipIn,Conditions,Clouds,dailyrainin,SoftwareType,DateUTC
2013-10-02 00:14:00,55.0,53.0,29.76,North,355,0.0,0.0,93,0.00,,,0.00,,2013-10-02 04:14:00,
2013-10-02 00:24:00,55.0,53.0,29.76,North,355,0.0,0.0,93,0.00,,,0.00,,2013-10-02 04:24:00,
2013-10-02 00:44:00,55.0,53.0,29.76,North,355,0.0,0.0,94,0.00,,,0.00,,2013-10-02 04:44:00,
2013-10-02 00:54:00,55.0,53.0,29.77,North,355,0.0,0.0,93,0.00,,,0.00,,2013-10-02 04:54:00,
2013-10-02 01:13:00,54.0,52.0,29.77,North,355,0.0,0.0,93,0.00,,,0.00,,2013-10-02 05:13:00,
2013-10-02 01:23:00,54.0,52.0,29.76,North,355,0.0,0.0,93,0.00,,,0.00,,2013-10-02 05:23:00,
2013-10-02 01:43:00,54.0,52.0,29.77,North,355,0.0,0.0,93,0.00,,,0.00,,2013-10-02 05:43:00,
2013-10-02 01:53:00,53.0,51.0,29.77,North,355,0.0,0.0,94,0.00,,,0.00,,2013-10-02 05:53:00,
2013-10-02 02:12:00,53.0,52.0,29.77,North,355,0.0,0.0,95,0.00,,,0.00,,2013-10-02 06:12:00,
2013-10-02 02:22:00,53.0,51.0,29.76,North,355,0.0,0.0,94,0.00,,,0.00,,2013-10-02 06:22:00,
2013-10-02 02:42:00,53.0,51.0,29.76,North,355,0.0,0.0,94,0.00,,,0.00,,2013-10-02 06:42:00,
2013-10-02 02:52:00,53.0,51.0,29.76,NE,42,0.0,2.0,94,0.00,,,0.00,,2013-10-02 06:52:00,
2013-10-02 03:12:00,53.0,51.0,29.75,ENE,71,0.0,1.0,94,0.00,,,0.00,,2013-10-02 07:12:00,
2013-10-02 03:22:00,52.0,50.0,29.76,ENE,71,0.0,0.0,94,0.00,,,0.00,,2013-10-02 07:22:00,
2013-10-02 03:42:00,52.0,50.0,29.76,ENE,71,0.0,0.0,94,0.00,,,0.00,,2013-10-02 07:42:00,
2013-10-02 03:52:00,52.0,51.0,29.77,ENE,71,0.0,0.0,95,0.00,,,0.00,,2013-10-02 07:52:00,
2013-10-02 04:11:00,52.0,50.0,29.76,ENE,71,0.0,0.0,94,0.00,,,0.00,,2013-10-02 08:11:00,
2013-10-02 04:22:00,51.0,50.0,29.76,ENE,71,0.0,1.0,95,0.00,,,0.00,,2013-10-02 08:22:00,
2013-10-02 04:42:00,51.0,50.0,29.76,ENE,71,0.0,0.0,95,0.00,,,0.00,,2013-10-02 08:42:00,
2013-10-02 04:52:00,51.0,50.0,29.76,ENE,71,0.0,2.0,95,0.00,,,0.00,,2013-10-02 08:52:00,
2013-10-02 05:11:00,50.0,49.0,29.76,ENE,71,0.0,0.0,95,0.00,,,0.00,,2013-10-02 09:11:00,
2013-10-02 05:22:00,50.0,48.0,29.76,ENE,71,0.0,0.0,94,0.00,,,0.00,,2013-10-02 09:22:00,
2013-10-02 05:43:00,50.0,49.0,29.76,ENE,71,0.0,1.0,95,0.00,,,0.00,,2013-10-02 09:43:00,
2013-10-02 05:54:00,50.0,49.0,29.76,ENE,71,0.0,1.0,95,0.00,,,0.00,,2013-10-02 09:54:00,
2013-10-02 06:12:00,49.0,48.0,29.76,ENE,71,0.0,1.0,95,0.00,,,0.00,,2013-10-02 10:12:00,
2013-10-02 06:23:00,49.0,48.0,29.76,ENE,71,0.0,1.0,95,0.00,,,0.00,,2013-10-02 10:23:00,
2013-10-02 06:42:00,49.0,48.0,29.76,ENE,71,0.0,0.0,95,0.00,,,0.00,,2013-10-02 10:42:00,
2013-10-02 06:52:00,49.0,48.0,29.76,ENE,71,0.0,0.0,96,0.00,,,0.00,,2013-10-02 10:52:00,
2013-10-02 07:12:00,49.0,48.0,29.76,ENE,71,0.0,0.0,96,0.00,,,0.00,,2013-10-02 11:12:00,
2013-10-02 07:22:00,49.0,48.0,29.76,ENE,71,0.0,0.0,96,0.00,,,0.00,,2013-10-02 11:22:00,
2013-10-02 07:52:00,49.0,48.0,29.77,ENE,71,0.0,1.0,96,0.00,,,0.00,,2013-10-02 11:52:00,
2013-10-02 08:12:00,50.0,49.0,29.77,ENE,71,0.0,0.0,97,0.00,,,0.00,,2013-10-02 12:12:00,
2013-10-02 08:22:00,50.0,49.0,29.77,ENE,71,0.0,2.0,97,0.00,,,0.00,,2013-10-02 12:22:00,
2013-10-02 08:42:00,52.0,51.0,29.76,ENE,71,0.0,1.0,98,0.00,,,0.00,,2013-10-02 12:42:00,
2013-10-02 08:52:00,52.0,51.0,29.77,ENE,71,0.0,1.0,98,0.00,,,0.00,,2013-10-02 12:52:00,
2013-10-02 09:11:00,53.0,52.0,29.77,ENE,71,0.0,2.0,98,0.00,,,0.00,,2013-10-02 13:11:00,
2013-10-02 09:22:00,54.0,53.0,29.77,ENE,71,0.0,2.0,98,0.00,,,0.00,,2013-10-02 13:22:00,
2013-10-02 09:52:00,58.0,57.0,29.76,SE,126,0.0,2.0,98,0.00,,,0.00,,2013-10-02 13:52:00,
2013-10-02 10:11:00,60.0,59.0,29.76,ESE,122,0.0,4.0,98,0.00,,,0.00,,2013-10-02 14:11:00,
2013-10-02 10:21:00,62.0,59.0,29.76,WSW,250,0.0,5.0,90,0.00,,,0.00,,2013-10-02 14:21:00,
2013-10-02 10:42:00,66.0,61.0,29.75,SSE,157,0.0,5.0,84,0.00,,,0.00,,2013-10-02 14:42:00,
2013-10-02 10:52:00,72.0,62.0,29.75,SW,227,2.0,8.0,72,0.00,,,0.00,,2013-10-02 14:52:00,
2013-10-02 15:22:00,83.0,61.0,29.71,NNE,18,1.0,8.0,47,0.00,,,0.00,,2013-10-02 19:22:00,
2013-10-02 15:42:00,84.0,61.0,29.71,West,265,4.0,8.0,46,0.00,,,0.00,,2013-10-02 19:42:00,
2013-10-02 15:52:00,84.0,60.0,29.71,NNW,347,2.0,10.0,44,0.00,,,0.00,,2013-10-02 19:52:00,
2013-10-02 16:11:00,84.0,61.0,29.71,SSW,192,2.0,12.0,46,0.00,,,0.00,,2013-10-02 20:11:00,
2013-10-02 16:22:00,84.0,61.0,29.71,NW,313,3.0,10.0,46,0.00,,,0.00,,2013-10-02 20:22:00,
2013-10-02 16:42:00,83.0,59.0,29.71,ESE,107,2.0,14.0,44,0.00,,,0.00,,2013-10-02 20:42:00,
2013-10-02 16:52:00,83.0,59.0,29.71,SE,144,2.0,10.0,44,0.00,,,0.00,,2013-10-02 20:52:00,
2013-10-02 17:11:00,82.0,59.0,29.71,WNW,302,1.0,9.0,46,0.00,,,0.00,,2013-10-02 21:11:00,
2013-10-02 17:22:00,80.0,60.0,29.71,North,351,1.0,6.0,50,0.00,,,0.00,,2013-10-02 21:22:00,
2013-10-02 17:44:00,78.0,58.0,29.71,South,178,2.0,8.0,51,0.00,,,0.00,,2013-10-02 21:44:00,
2013-10-02 17:55:00,77.0,59.0,29.71,SE,140,0.0,4.0,53,0.00,,,0.00,,2013-10-02 21:55:00,
2013-10-02 18:13:00,77.0,59.0,29.72,SSE,159,1.0,5.0,54,0.00,,,0.00,,2013-10-02 22:13:00,
2013-10-02 18:24:00,76.0,60.0,29.72,SSE,148,1.0,3.0,57,0.00,,,0.00,,2013-10-02 22:24:00,
2013-10-02 18:44:00,75.0,60.0,29.73,South,181,1.0,5.0,60,0.00,,,0.00,,2013-10-02 22:44:00,
2013-10-02 18:54:00,73.0,60.0,29.74,SSW,200,0.0,1.0,64,0.00,,,0.00,,2013-10-02 22:54:00,
2013-10-02 19:12:00,72.0,60.0,29.74,SSW,196,0.0,1.0,67,0.00,,,0.00,,2013-10-02 23:12:00,
2013-10-02 19:22:00,70.0,59.0,29.74,SSW,196,0.0,0.0,69,0.00,,,0.00,,2013-10-02 23:22:00,
2013-10-02 19:52:00,69.0,59.0,29.75,SSE,160,0.0,3.0,71,0.00,,,0.00,,2013-10-02 23:52:00,
2013-10-02 20:12:00,69.0,59.0,29.75,SE,137,2.0,4.0,71,0.00,,,0.00,,2013-10-03 00:12:00,
2013-10-02 20:22:00,69.0,59.0,29.76,SSE,151,0.0,4.0,71,0.00,,,0.00,,2013-10-03 00:22:00,
2013-10-02 20:42:00,69.0,60.0,29.76,SSW,192,0.0,2.0,72,0.00,,,0.00,,2013-10-03 00:42:00,
2013-10-02 20:52:00,68.0,59.0,29.77,SSE,157,0.0,3.0,74,0.00,,,0.00,,2013-10-03 00:52:00,
2013-10-02 21:11:00,67.0,59.0,29.77,SSE,161,0.0,3.0,76,0.00,,,0.00,,2013-10-03 01:11:00,
2013-10-02 21:23:00,66.0,59.0,29.78,SSE,161,0.0,1.0,77,0.00,,,0.00,,2013-10-03 01:23:00,
2013-10-02 21:42:00,65.0,59.0,29.78,SSE,161,0.0,1.0,80,0.00,,,0.00,,2013-10-03 01:42:00,
2013-10-02 21:52:00,64.0,59.0,29.78,SSE,161,0.0,1.0,83,0.00,,,0.00,,2013-10-03 01:52:00,
2013-10-02 22:11:00,64.0,59.0,29.79,SSW,197,0.0,3.0,84,0.00,,,0.00,,2013-10-03 02:11:00,
2013-10-02 22:22:00,64.0,59.0,29.79,South,187,0.0,4.0,83,0.00,,,0.00,,2013-10-03 02:22:00,
2013-10-02 23:11:00,63.0,58.0,29.80,South,187,0.0,1.0,83,0.00,,,0.00,,2013-10-03 03:11:00,
2013-10-02 23:22:00,62.0,57.0,29.81,South,187,0.0,2.0,84,0.00,,,0.00,,2013-10-03 03:22:00,
2013-10-02 23:44:00,61.0,57.0,29.82,South,187,0.0,1.0,86,0.00,,,0.00,,2013-10-03 03:44:00,
2013-10-02 23:54:00,60.0,57.0,29.82,South,187,0.0,0.0,89,0.00,,,0.00,,2013-10-03 03:54:00,